Regional Weather Roundup
Issued by NWS

Home | Current Version | Previous Version | Graphics & Text | Print | Product List | Glossary Off
Versions: 1 2 3 4 5 6 7 8 9 10 11 12 13 14 15 16 17 18 19 20 21 22 23 24 25 26 27 28 29 30 31 32 33 34 35 36 37 38 39 40 41 42 43 44 45 46 47 48 49 50

000
ASUS43 KTOP 220708
RWRKS

WEATHER ROUNDUP FOR KANSAS
NATIONAL WEATHER SERVICE GOODLAND KS
200 AM CDT TUE JUL 22 2014

NOTE:  "FAIR" INDICATES FEW OR NO CLOUDS BELOW 12,000 FEET WITH NO
SIGNIFICANT WEATHER AND/OR OBSTRUCTIONS TO VISIBILITY.

KSZ001>006-013>018-027>032-041>047-220800-
NORTHWEST KANSAS

CITY           SKY/WX    TMP DP  RH WIND       PRES   REMARKS
GOODLAND       CLEAR     72  62  71 SW16G24   30.10S
HAYS           MOCLDY    79  59  50 W5        30.01R
HILL CITY      CLEAR     79  60  52 W8        30.00S
RUSSELL        CLOUDY    76  70  82 SW8       29.98S
$$

KSZ061>065-074>080-084>089-220800-
SOUTHWEST KANSAS

CITY           SKY/WX    TMP DP  RH WIND       PRES   REMARKS
DODGE CITY     CLOUDY    75  62  64 S9        30.04R
ELKHART          N/A     67  64  90 SE7         N/A
GARDEN CITY    CLOUDY    74  63  68 SW13G22   30.05R
GREAT BEND     CLOUDY    79  66  65 SW7       29.99R
LIBERAL        CLOUDY    72  63  73 S10       30.06F
PRATT          CLOUDY    77  68  73 S9        30.02S
$$

KSZ066>073-081>083-090>101-220800-
SOUTHEAST KANSAS

CITY           SKY/WX    TMP DP  RH WIND       PRES   REMARKS
CHANUTE        MOCLDY    75  72  90 S7        30.03S
COFFEYVILLE    MOCLDY    77  72  84 S8        30.02F HAZE
HUTCHINSON     CLOUDY    81  73  76 S9        30.00S
MEDICINE LODGE   N/A     78  72  81 S3        30.01S
NEWTON         CLOUDY    81  72  74 S12       30.04R
PARSONS        MOCLDY    77  71  82 S5        30.03F
WICHITA INTL   CLOUDY    80  75  84 S13       30.00F
WICHITA JABRA  CLOUDY    81  75  82 S16       30.00F
WICHITA MCCONL CLOUDY    79  79 100 S13       30.01F
WINFIELD       CLOUDY    79  75  87 S10       30.02F
$$

KSZ007>012-019>026-033>040-048>060-102>105-220800-
NORTHEAST KANSAS

CITY           SKY/WX    TMP DP  RH WIND       PRES   REMARKS
CONCORDIA      PTCLDY    82  71  69 S18G26    29.96S
EMPORIA        MOCLDY    76  74  93 S13       29.99F
LAWRENCE       PTCLDY    80  74  81 S9        29.98S
MANHATTAN      MOCLDY    81  74  79 SW9       29.96S
MARYSVILLE     CLEAR     79  73  83 S6        29.95S
OLATHE IND     PTCLDY    78  73  84 S10       30.00F
OLATHE EXE     PTCLDY    77  73  87 S8        29.99F
SALINA         CLOUDY    85  73  67 S20       29.97S
TOPEKA BILLARD PTCLDY    81  75  82 S8        29.97S
TOPEKA FORBES  MOCLDY    79  74  84 S8        29.97F
$$


USA.gov is the U.S. government's official web portal to all federal, state and local government web resources and services.